Volver al catálogo

COSMOS 1275 DEB

ActivoPO
NORAD 13476·DEBRIS·🇷🇺 Russia

Lanzado Jun 4, 1981 desde Plesetsk Cosmodrome

Loading…

Próximos Pases (próximas 24 horas)

TLE

ActualizadoSource: Space-Track

Época: Sep 13, 2026, 23:21 UTC

1 13476U 81053FW  26256.97348932  .00001022  00000-0  63246-3 0  9993
2 13476  82.7976  86.3696 0049232 331.7962 181.4103 14.03826304241850

Sigue COSMOS 1275 DEB en tiempo real con AllMySat

Download on the App Store